Weather in Zapovednoye

Russia / Kaliningrad Oblast     55°03′49″N   21°22′48″E
temp.,
°C
wind,
m/s
gust,
m/s
humid.,
%
clouds,
%
prec.,
mm/h
press.,
hPa
HPBL,
m
22 april, thu
thu2223:00+5wsw411835 0.0 1008397
02:00+6sw4972100 0.0 1008537
05:00+4sw41178100 0.0 1007449
08:00+6sw610685 0.0 1008881
11:00+8wsw81163100 0.4 10071817
14:00+5w61171100 1.5 10081368
17:00+4w81186100 0.3 1009956
20:00+3w5987100 0.7 1009795
23 april, fri
fri2323:00+3w5109187 0.8 1009939
02:00+3w71190100 1.1 10091010
05:00+3wnw81396100 1.1 10101145
08:00+3wnw71189100 1.8 10131056
11:00+5wnw8117214 1.5 10141453
14:00+6wnw8106424 2.3 10161666
17:00+5wnw796341 0.4 10171516
20:00+3nw51073100 0.6 1018497
24 april, sat
sat2423:00+2wnw4107226 0.1 1018402
02:00+2wnw3875100 0.3 1018223
05:00+3w41072100 0.0 1017341
08:00+5nw5106373 0.6 10171419
11:00+6wnw712504 0.1 10181911
14:00+6wnw8125111 0.1 10182002
17:00+5wnw7105548 0.0 10191762
20:00+3nw51069100 0.1 1019729
25 april, sun
sun2523:00+2nw5107182 0.2 1018544
02:00+2wnw5107471 0.3 1018438
05:00+2wnw3876100 0.1 1017244
08:00+4wnw5869100 0.8 10161330
11:00+6nw6854100 0.6 10161695
14:00+6nw7954100 0.9 10171593
17:00+4nw6965100 0.4 10171326
20:00+2nw497472 0.6 1017421
26 april, mon
mon2623:00+2wnw4973100 0.2 1016500
02:00+2w3873100 0.3 1015215
05:00+2wsw3776100 0.0 1014206
08:00+5w5960100 0.1 10131511
11:00+7wnw61053100 0.1 10131787
14:00+5wnw71077100 0.3 10131120
17:00+5wnw6978100 0.3 10131053
20:00+4wnw5989100 0.5 1013905